Home   Weather   Rio Branco   Past weeks

Flag for Brazil Past Weather in Rio Branco, Acre, Brazil — Yesterday and Last 2 Weeks

Now
73 °F

Passing clouds.


Feels Like: 72 °F
Forecast: 72 / 89 °F
Wind: 5 mph from West

Location: Rio Branco Airport

Current Time: Dec 9, 2016 at 4:56:18 am

Latest Report: Dec 9, 2016 at 4:00 am


Visibility: N/A

Pressure: 29.80 "Hg

Humidity: 89%

Dew Point: 70 °F

Location of Rio BrancoLocation

Past Weather in Rio Branco — Graph

°F

Rio Branco Temperature Yesterday

Maximum temperature yesterday: 90 °F (at 12:00 pm)
Minimum temperature yesterday: 72 °F (at 5:00 am)
Average temperature yesterday: 79 °F

High & Low Weather Summary for the Past Weeks

 TemperatureHumidityPressure
High93 °F (Nov 25, 12:00 pm)100% (Dec 6, 4:00 pm)29.98 "Hg (Dec 6, 4:00 pm)
Low41 °F (Dec 6, 4:00 pm)44% (Nov 25, 2:00 pm)29.68 "Hg (Nov 25, 3:00 pm)
Average79 °F78%29.85 "Hg
* Reported Nov 24 3:00 am — Dec 9 3:00 am, Rio Branco, Weather by CustomWeather, © 2016

Note: Actual official high and low records may vary slightly from our data, if they occured in-between our weather recording intervals... More about our weather records

Advertising

Rio Branco Weather History for the Previous 24 Hours

Scroll right to see more
 ConditionsComfort  
Time TempWeatherWind HumidityBarometerVisibility
3:00 am
Fri, Dec 9
73 °FPartly cloudy.1 mph89%29.80 "HgN/A
2:00 am73 °FThundershowers. Partly cloudy.2 mph89%N/AN/A
1:00 am73 °FThunderstorms. Partly cloudy.5 mph89%29.83 "Hg5 mi
12:00 am75 °FThundershowers. Passing clouds.5 mph89%29.86 "HgN/A
11:00 pm
Thu, Dec 8
73 °FThundershowers. Passing clouds.1 mph94%29.86 "HgN/A
10:00 pm77 °FThundershowers. Passing clouds.5 mph83%29.86 "HgN/A
9:00 pm77 °FClear.2 mph83%29.83 "Hg10 mi
8:00 pm77 °FThundershowers. Passing clouds.6 mph89%29.80 "HgN/A
7:00 pm75 °FThundershowers. Passing clouds.1 mph94%29.74 "HgN/A
6:00 pm81 °FPassing clouds.3 mph74%29.74 "HgN/A
5:00 pm81 °FPassing clouds.1 mph79%29.68 "HgN/A
4:00 pm81 °FScattered showers. Broken clouds.6 mph74%N/AN/A
3:00 pm81 °FScattered showers. Scattered clouds.2 mph74%N/AN/A
2:00 pm81 °FScattered showers. Partly sunny.6 mph74%29.74 "HgN/A
1:00 pm88 °FPartly sunny.8 mph55%29.80 "HgN/A
12:00 pm90 °FScattered showers. Partly sunny.9 mph49%29.83 "HgN/A
11:00 am88 °FScattered clouds.8 mph59%29.86 "HgN/A
10:00 am86 °FSunny.7 mph59%29.89 "Hg10 mi
9:00 am84 °FSunny.7 mph62%29.89 "Hg10 mi
8:00 am81 °FSunny.7 mph70%29.92 "Hg10 mi
7:00 am77 °FSunny.8 mph83%29.89 "Hg10 mi
6:00 am73 °FSunny.2 mph89%29.86 "Hg10 mi
5:00 am72 °FClear.3 mph94%29.83 "Hg10 mi
4:00 am73 °FClear.3 mph89%29.83 "Hg10 mi
Weather by CustomWeather, © 2016

See weather overviewHow to use our weather pages